Home   Weather   's-Hertogenbosch   Past weeks

Flag for Netherlands Past Weather in 's-Hertogenbosch, Netherlands — Yesterday and Last 2 Weeks

Now
46 °F

Cool.


Feels Like: 46 °F
Forecast: 38 / 64 °F
Wind: 2 mph from North

Location: Volkel

Current Time: Apr 29, 2017 at 9:50:18 am

Latest Report: Apr 29, 2017 at 8:55 am


Visibility: N/A

Pressure: 30.07 "Hg

Humidity: 71%

Dew Point: 37 °F

Location of 's-HertogenboschLocation

Past Weather in 's-Hertogenbosch — Graph

°F

's-Hertogenbosch Temperature Yesterday

Maximum temperature yesterday: 54 °F (at 4:25 pm)
Minimum temperature yesterday: 36 °F (at 1:55 am)
Average temperature yesterday: 46 °F

High & Low Weather Summary for the Past Weeks

 TemperatureHumidityPressure
High59 °F (Apr 21, 12:55 pm)100% (Apr 15, 7:55 am)30.63 "Hg (Apr 15, 7:55 am)
Low25 °F (Apr 20, 6:55 am)33% (Apr 20, 3:25 pm)29.68 "Hg (Apr 25, 4:25 am)
Average45 °F71%30.14 "Hg
* Reported Apr 14 8:25 am — Apr 29 8:25 am, 's-Hertogenbosch, Weather by CustomWeather, © 2017

Note: Actual official high and low records may vary slightly from our data, if they occured in-between our weather recording intervals... More about our weather records

Advertising

's-Hertogenbosch Weather History for the Previous 24 Hours

Scroll right to see more
 ConditionsComfort  
Time TempWeatherWind HumidityBarometerVisibility
8:25 am
Sat, Apr 29
43 °FScattered clouds.5 mph81%30.07 "HgN/A
7:55 am39 °FPartly sunny.5 mph87%30.07 "HgN/A
7:25 am34 °FFog.5 mph100%30.07 "Hg6 mi
6:55 am34 °FFog.5 mph93%30.07 "Hg3 mi
6:44 am34 °FFog.3 mph93%30.07 "Hg3 mi
6:25 am34 °FFog.3 mph100%30.07 "Hg5 mi
5:55 am36 °FFog.5 mph93%30.07 "Hg6 mi
5:25 am36 °FPassing clouds.5 mph93%30.07 "HgN/A
4:55 am36 °FPassing clouds.3 mph93%30.04 "HgN/A
4:25 am36 °FPassing clouds.3 mph93%30.04 "HgN/A
3:55 am37 °FChilly.3 mph87%30.04 "HgN/A
2:55 am37 °FOvercast.5 mph93%30.04 "HgN/A
2:25 am37 °FOvercast.3 mph93%30.04 "HgN/A
1:55 am37 °FOvercast.3 mph87%30.04 "HgN/A
1:25 am37 °FPassing clouds.3 mph87%30.04 "HgN/A
12:55 am37 °FMostly cloudy.5 mph87%30.04 "HgN/A
12:25 am36 °FMostly cloudy.5 mph81%30.04 "HgN/A
11:55 pm
Fri, Apr 28
37 °FMostly cloudy.5 mph87%30.04 "HgN/A
11:25 pm37 °FPassing clouds.5 mph81%30.01 "HgN/A
10:55 pm41 °FPassing clouds.5 mph81%30.01 "HgN/A
10:25 pm43 °FPassing clouds.3 mph76%30.01 "HgN/A
9:55 pm45 °FQuite cool.5 mph66%30.01 "HgN/A
9:25 pm45 °FPassing clouds.5 mph66%30.01 "HgN/A
8:55 pm46 °FPassing clouds.5 mph66%29.98 "HgN/A
8:25 pm48 °FPassing clouds.7 mph62%29.98 "HgN/A
7:55 pm50 °FScattered clouds.6 mph58%29.98 "HgN/A
7:25 pm52 °FPassing clouds.10 mph54%29.98 "HgN/A
6:55 pm52 °FBroken clouds.10 mph54%29.95 "HgN/A
6:25 pm52 °FPartly sunny.9 mph54%29.95 "HgN/A
5:55 pm52 °FMostly cloudy.8 mph54%29.95 "HgN/A
5:25 pm54 °FCloudy.9 mph51%29.95 "HgN/A
4:55 pm52 °FBroken clouds.9 mph58%29.95 "HgN/A
4:25 pm54 °FPartly sunny.6 mph54%29.95 "HgN/A
3:55 pm52 °FMostly cloudy.8 mph58%29.95 "HgN/A
2:55 pm52 °FMostly cloudy.8 mph58%29.92 "HgN/A
2:25 pm52 °FOvercast.6 mph58%29.92 "HgN/A
2:15 pm52 °FOvercast.8 mph62%29.92 "HgN/A
2:02 pm52 °FMostly cloudy.7 mph62%29.92 "HgN/A
1:39 pm48 °FLight rain. Broken clouds.7 mph76%29.92 "HgN/A
12:55 pm50 °FPartly sunny.5 mph58%29.92 "HgN/A
12:25 pm50 °FBroken clouds.3 mph67%29.92 "HgN/A
11:55 am50 °FLight rain. Broken clouds.6 mph67%29.92 "HgN/A
11:44 am50 °FMostly cloudy.7 mph67%29.92 "HgN/A
11:31 am50 °FBroken clouds.5 mph71%29.92 "HgN/A
11:04 am50 °FBroken clouds.8 mph67%29.92 "HgN/A
10:37 am50 °FBroken clouds.6 mph67%29.92 "HgN/A
10:25 am50 °FCloudy.8 mph67%29.92 "HgN/A
10:15 am50 °FScattered clouds.8 mph71%29.92 "HgN/A
9:55 am50 °FPartly sunny.8 mph71%29.92 "HgN/A
9:25 am48 °FPartly sunny.8 mph76%29.92 "HgN/A
Weather by CustomWeather, © 2017

See weather overviewHow to use our weather pages